Flag for Norway Weather past 2 weeks in Førde, Norway

Now
55 °F

Scattered showers. Broken clouds.


Feels Like: 53 °F
Forecast: 54 / 64 °F
Wind: 10 mph from South

Location: Forde / Bringeland

Current Time: Sep 1, 2014 at 4:21:20 PM

Latest Report: Sep 1, 2014 at 3:20 PM


Visibility: N/A

Pressure: 30.07 "Hg

Humidity: 77%

Dew point: 48 °F

Location of FørdeLocation

Historic Weather in Førde — Graph

°F

Førde temperature yesterday

Maximum temperature yesterday: 66 °F (at 11:50 AM)
Minimum temperature yesterday: 59 °F (at 9:50 PM)
Average temperature yesterday: 63 °F

Past Weeks' High & Low Weather Summary

 TemperatureHumidityPressure
High70 °F (Aug 29, 2:20 PM)100% (Aug 18, 5:50 AM)30.07 "Hg (Aug 18, 5:50 AM)
Low45 °F (Aug 22, 5:50 AM)35% (Aug 29, 3:50 PM)29.18 "Hg (Aug 18, 7:50 AM)
Average55 °F75%29.68 "Hg
* Reported Aug 17 2:20 PM — Sep 1 2:50 PM, Førde, Weather by CustomWeather, © 2014

Note: Actual official high and low records may vary slightly from our data, if they occured in-between our weather recording intervals... More about our weather records

Advertising

Førde weather history for previous 24 hours

 ConditionsComfort  
Time TempWeatherWind HumidityBarometerVisibility
2:50 PM
Sep 1
57 °FScattered showers. Broken clouds.13 mph67%30.07 "HgN/A
1:50 PM57 °FBroken clouds.8 mph67%30.07 "HgN/A
12:50 PM55 °FBroken clouds.8 mph77%30.07 "HgN/A
12:20 PM55 °FScattered showers. Broken clouds.12 mph72%30.07 "HgN/A
11:50 AM55 °FScattered showers. Partly sunny.6 mph77%30.07 "HgN/A
11:20 AM55 °FBroken clouds.12 mph77%30.07 "HgN/A
10:20 AM57 °FRain. Broken clouds.12 mph59%30.07 "HgN/A
9:50 AM57 °FBroken clouds.7 mph59%30.07 "HgN/A
9:20 AM57 °FBroken clouds.5 mph59%30.07 "HgN/A
8:50 AM57 °FBroken clouds.5 mph59%30.07 "HgN/A
7:50 AM55 °FBroken clouds.5 mph67%30.07 "HgN/A
6:20 AM57 °FPassing clouds.5 mph63%30.07 "HgN/A
5:50 AM57 °FPassing clouds.5 mph63%30.07 "HgN/A
10:50 PM
Aug 31
59 °FPassing clouds.3 mph59%30.07 "HgN/A
10:20 PM59 °FPassing clouds.5 mph63%30.07 "HgN/A
9:50 PM59 °FPassing clouds.3 mph59%30.07 "HgN/A
9:20 PM61 °FPartly sunny.5 mph55%30.04 "HgN/A
8:50 PM61 °FPartly sunny.6 mph55%30.04 "HgN/A
8:20 PM61 °FPassing clouds.6 mph55%30.04 "HgN/A
7:50 PM61 °FPassing clouds.10 mph55%30.04 "HgN/A
7:20 PM63 °FPartly sunny.10 mph52%30.04 "HgN/A
6:50 PM63 °FPartly sunny.9 mph52%30.04 "HgN/A
6:20 PM63 °FPartly sunny.12 mph52%30.04 "HgN/A
5:50 PM64 °FPartly sunny.8 mph49%30.04 "HgN/A
5:20 PM66 °FScattered clouds.10 mph49%30.04 "HgN/A
4:50 PM66 °FScattered clouds.9 mph46%30.04 "HgN/A
4:20 PM66 °FScattered clouds.9 mph46%30.04 "HgN/A
Weather by CustomWeather, © 2014

See weather overviewHow to use our weather pages